Location: Middelsbur
(53.6609°N, 7.5020°E)
Time: 23:37:21
(UTC+00:00)

Cosmos 405 - Pass Details

Date: 06 July 2020
Orbit: 450 x 465 km, 81.3° (Epoch: 03 August)

Event Time Altitude Azimuth Distance (km) Brightness Sun altitude
Rises 22:48:12 0° 351° (N) 2,513 8.8 -13.1°
Reaches altitude 10° 22:50:25 10° 360° (N) 1,630 7.1 -13.2°
Maximum altitude 22:53:46 38° 70° (ENE) 725 4.0 -13.3°
Enters shadow 22:56:03 17° 132° (SE) 1,225 4.6 -13.3°
